sat.trackr.live / text

‹ back to catalog

ASIASAT 8 (AMOS-7)

NORAD 40107 · 2014-046A

PAYLOAD ACTIVE UNKNOWN

§ Identity

Operator
Country
AC
Launch date
2014-08-05
Launch site
AFETR
Launch vehicle
Mass (kg)
RCS (m²)
44.82

Purposes: comms

External: N2YO · Heavens-Above · Gunter

§ Orbital elements

Epoch: 2026-09-20T00:18:54.068256Z

Period
1,436.08 min
Inclination
0.0172°
Eccentricity
0.0001634
Mean motion
1.00272792 rev/d
Perigee alt
35,779.4 km
Apogee alt
35,793.2 km
Semi-major
42,164.4 km
B*
0.0000e+0
RAAN
138.8218°
Arg perigee
25.6089°
Mean anomaly
304.5342°
Rev number
10,310

§ Raw data

ASIASAT 8 (AMOS-7)1 40107U 14046A   26263.01312579 -.00000337  00000+0  00000+0 0  99962 40107   0.0172 138.8218 0001634  25.6089 304.5342  1.00272792103105

JSON: /api/v1/satellites/40107 · /tle

For live sub-satellite position, see the globe view (requires WebGL).

§ Visibility from observer

Set your observer location to see the next 7 days of passes ≥ 10°. The values pass through the URL so the page stays shareable.

No JS? Fill the form by hand. The geolocation button needs JavaScript.